This is the latest recevied weather packets stored in our database for station/object N6RDS-8. If no packets are shown the sender has not sent any weather packets the latest 10 day(s).
| Time | Temp. | Humidity | Pressure | Rain* | Wind** | Luminosity | Snow |
|---|---|---|---|---|---|---|---|
| 1777873450 | 17.78° C | 38% | 1018.1 hPa | 0 mm | - | 0 W/m² | - |
| 1777873147 | 18.33° C | 38% | 1018.2 hPa | 0 mm | - | 0 W/m² | - |
| 1777872843 | 18.89° C | 36% | 1018.2 hPa | 0 mm | - | 0 W/m² | - |
| 1777872541 | 19.44° C | 35% | 1018 hPa | 0 mm | - | 0 W/m² | - |
| 1777872233 | 20° C | 33% | 1017.9 hPa | 0 mm | - | 0 W/m² | - |
| 1777871930 | 20.56° C | 33% | 1018 hPa | 0 mm | - | 0 W/m² | - |
| 1777871626 | 20.56° C | 32% | 1018.4 hPa | 0 mm | - | 0 W/m² | - |
| 1777871323 | 20.56° C | 32% | 1017.9 hPa | 0 mm | - | 0 W/m² | - |
| 1777871020 | 20.56° C | 31% | 1018.4 hPa | 0 mm | - | 0 W/m² | - |
| 1777870717 | 20.56° C | 32% | 1018.4 hPa | 0 mm | - | 0 W/m² | - |
| 1777870413 | 20.56° C | 31% | 1018.1 hPa | 0 mm | - | 0 W/m² | - |
| 1777870110 | 20.56° C | 32% | 1018 hPa | 0 mm | - | 0 W/m² | - |
| 1777869807 | 20° C | 32% | 1018 hPa | 0 mm | - | 0 W/m² | - |
| 1777869505 | 18.89° C | 33% | 1018.1 hPa | 0 mm | - | 0 W/m² | - |
| 1777869201 | 18.89° C | 33% | 1018.2 hPa | 0 mm | - | 0 W/m² | - |
| 1777868899 | 19.44° C | 33% | 1018.1 hPa | 0 mm | - | 0 W/m² | - |
| 1777868595 | 18.89° C | 34% | 1018 hPa | 0 mm | - | 0 W/m² | - |
| 1777868291 | 18.89° C | 34% | 1017.8 hPa | 0 mm | - | 0 W/m² | - |
| 1777867987 | 18.89° C | 35% | 1017.5 hPa | 0 mm | - | 0 W/m² | - |
| 1777867684 | 19.44° C | 32% | 1017.5 hPa | 0 mm | - | 0 W/m² | - |
| 1777867381 | 20° C | 32% | 1017.2 hPa | 0 mm | - | 0 W/m² | - |
| 1777867077 | 20° C | 32% | 1017.5 hPa | 0 mm | - | 0 W/m² | - |
| 1777866774 | 20° C | 33% | 1017.5 hPa | 0 mm | - | 0 W/m² | - |
| 1777866471 | 20° C | 33% | 1017.5 hPa | 0 mm | - | 0 W/m² | - |
| 1777866169 | 20.56° C | 33% | 1017.2 hPa | 0 mm | - | 0 W/m² | - |
* Rain latest hour (hover to see other rain measurements)
** Current wind speed in m/s (hover to see current wind gust speed)